{"data":{"norad_id":53227,"epoch":"2026-09-19T22:19:05.471616Z","epoch_age_seconds":121461,"freshness":"FRESH","line1":"1 53227U 22084AQ  26262.92992444  .00000346  00000+0  13051-4 0  9992","line2":"2 53227  97.2848 318.5856 0001474  93.7282 266.4129 15.33444042228666","mean_motion":15.33444042,"eccentricity":0.0001474,"inclination_deg":97.2848,"raan_deg":318.5856,"arg_perigee_deg":93.7282,"mean_anomaly_deg":266.4129,"bstar":1.3051e-5,"rev_number":22866,"period_min":93.906263323562,"perigee_km":464.53726593575,"apogee_km":466.55478369146,"semimajor_km":6843.6830248136,"source":"CELESTRAK","updated_at":"2026-09-20T09:00:40.195847Z"}}